Vertical_Velocity
-0 -1 -2 5 2 2 -0 2 2 -1 -2 4 -0 -1 -0 -1 -1 -3 -4 3 0 1 1 2 2 5 2 3 2 9 -1 -7 -5 -4 -12 8 4 -2 -1 5 2 -1 -11 2 0
-4 -1 1 -4 1 -1 0 -3 -3 2 -0 -3 2 3 -0 -2 -3 -4 -5 -3 4 -0 -4 1 5 5 1 4 -2 -1 -3 -4 -5 14 11 18 2 -2 -0 -2 -5 8 -5 1 4
2 -2 1 -2 -1 -4 -3 1 -0 -6 1 -0 -3 -6 4 -2 -5 -3 -1 1 -1 3 1 2 5 5 3 7 0 2 -5 -3 3 2 -1 -1 -6 4 4 -2 -0 8 -7 2 -1
-2 -1 -1 2 -1 -2 -0 -1 -1 2 -1 -0 -2 -3 -5 4 -3 -7 2 -1 1 2 3 4 1 3 2 -2 -1 -1 -2 -2 -2 -6 2 2 -4 8 -2 6 6 -7 -1 3 -1
-4 -2 -1 2 -2 3 -0 1 -2 -0 1 0 0 0 -5 -8 -9 4 3 1 -0 3 3 1 -3 11 -1 -4 2 -3 1 4 5 4 -5 -1 1 -3 -3 5 5 3 -5 1 -1
-3 0 0 -1 2 -2 -1 -2 2 -2 2 4 2 -0 -4 -17 8 -2 1 3 1 2 3 -0 -3 -2 5 -2 10 -4 -7 -4 4 5 -1 -0 -2 0 -3 7 5 -4 -2 3 0
-1 -5 -2 -1 -6 -2 -2 -3 -0 0 1 4 4 -2 -9 -19 -1 -2 1 -2 4 -0 1 3 -3 11 10 17 1 21 7 2 1 -2 1 1 -6 -8 -2 6 -1 -3 -2 2 1
-1 -0 -1 -3 0 -1 -3 -4 -2 -0 2 2 0 2 -34 3 -0 -1 -2 0 2 1 2 3 8 11 -0 2 2 4 8 2 -8 3 -3 3 -6 -1 -6 2 -4 4 0 -1 0
-3 -3 -3 -1 -4 -2 -2 -5 -2 -0 4 -0 -2 5 -15 4 -14 6 3 2 5 10 11 14 13 -9 4 -5 -0 1 0 -5 -9 5 5 -3 -5 3 -3 6 -3 0 -1 -0 2
-2 -1 -1 1 -2 -3 -4 -5 -2 1 2 -5 2 16 -5 -7 -11 -1 6 1 2 9 16 1 6 -4 1 10 -12 -6 1 -5 -4 -1 -0 1 -4 -2 7 1 -2 4 2 -3 0
-1 -2 -0 -1 -2 -2 -5 -8 -6 -1 3 11 17 26 15 14 18 18 5 -1 8 17 3 -5 -3 -23 -12 -5 -9 6 12 -6 -4 13 3 1 -4 -2 -1 5 3 0 -0 -1 -3
-3 -2 -4 -3 -3 1 -0 -1 3 3 -32 9 -4 -12 -8 9 22 20 8 19 6 -6 13 5 -28 0 4 -0 0 9 8 -3 -1 15 4 2 -7 0 -3 -2 -2 -3 3 3 -3
-2 -2 -4 -2 -3 2 -3 3 2 2 16 -46 0 -10 -25 23 -10 -1 35 -0 -10 11 -7 -3 -3 2 -2 -3 -0 -2 -1 -6 16 10 0 -0 -13 -9 -6 -3 -6 2 3 7 0
-4 -1 -4 -4 2 -3 2 4 2 1 -4 -36 -11 -6 -2 -4 -39 3 31 5 24 -7 6 2 4 -3 5 -4 2 6 -3 -3 10 -1 -6 4 -9 4 6 3 -4 -4 0 4 1
-3 -1 -3 3 -5 2 -1 -0 2 4 4 9 11 -8 -1 -19 8 -44 7 44 3 -10 19 -14 -2 13 4 -24 -1 -15 9 -5 6 7 6 7 10 -22 10 -0 2 -3 -4 1 -1
-1 -2 -5 4 3 2 -2 -2 4 1 -8 -2 9 -18 19 -0 -7 29 0 36 17 19 5 -3 2 14 -11 2 3 -2 3 0 11 0 7 -16 15 -14 -5 -8 -4 8 3 6 4
-1 -2 0 -1 -1 -0 -2 -2 -0 1 2 -0 -5 -6 13 11 -5 -0 20 1 15 1 7 20 2 23 6 5 9 1 8 2 5 7 -7 11 19 -25 27 5 1 2 -0 2 2
-1 -4 4 -0 1 0 2 -2 1 -0 15 1 2 -0 -4 17 8 -12 2 14 -1 -4 1 2 9 3 3 -8 -18 -24 -12 -7 -4 -2 -4 -7 -4 -33 -17 0 4 3 3 3 4
1 -0 -1 -2 -1 -1 -1 -2 -1 6 3 -6 -13 1 1 -5 9 8 6 8 4 -11 4 4 -1 4 -7 -8 -7 -8 8 6 -3 -1 1 -5 -5 -6 -10 2 -6 1 2 5 4
-2 -2 -3 -2 -2 -0 1 -3 -3 10 2 -2 1 9 2 18 -7 7 5 -17 9 -8 10 4 20 14 -0 14 4 -0 8 9 -1 -3 -0 1 1 -11 3 -1 3 -6 1 3 3
-1 -6 -3 -0 -1 -2 -2 0 -4 1 7 2 8 -0 0 -10 16 -7 4 9 8 -26 8 10 0 10 16 -1 -17 -1 -1 3 4 1 -1 1 0 2 1 -1 4 3 8 7 3
-3 -4 -1 -2 0 -3 -1 11 5 -3 5 -0 -3 3 2 12 -2 -1 1 2 5 33 -28 1 3 -5 -21 3 21 8 -6 4 -4 -0 -3 3 -5 3 1 1 -0 2 2 4 4
-3 -3 0 -3 -6 -1 2 -2 -2 -1 -0 2 4 7 6 -0 5 0 7 -4 -3 -2 3 2 8 -1 17 7 7 3 -3 8 0 3 -3 -2 -2 3 2 1 -1 -1 5 1 4
-5 -5 -3 -2 -2 -1 -6 -2 -5 2 -9 0 -5 -1 -0 -4 3 2 -11 2 4 -4 5 21 -5 -9 -10 -15 -7 -12 -8 -2 6 7 -11 -8 -1 4 5 0 0 1 2 2 2
-3 -1 -0 -4 -1 3 -0 1 -4 1 4 4 -1 4 5 -1 -7 -5 7 -8 -7 7 18 14 -7 -4 -4 11 2 -3 1 1 -2 -4 -2 -31 -8 23 3 -0 -1 2 2 1 0
-2 -2 1 -1 0 0 3 1 2 -2 3 -3 1 2 1 2 9 -7 11 2 -10 -1 3 -3 -2 -2 -3 -1 7 -5 -0 -3 5 3 6 3 -24 29 6 0 -2 -0 4 3 2
-1 0 -1 -0 1 0 4 -0 -2 2 7 7 1 -2 1 3 5 6 25 3 -0 -4 4 -1 -2 -1 -5 -5 3 8 -24 -9 -3 -3 -2 -13 -30 5 5 6 -1 -2 3 3 2
Height
3061 3059 3057 3055 3053 3052 3050 3049 3048 3046 3045 3044 3044 3044 3042 3042 3041 3040 3043 3044 3044 3045 3046 3049 3051 3053 3058 3060 3064 3069 3069 3068 3073 3077 3080 3082 3083 3085 3089 3090 3090 3091 3091 3095 3098
3056 3054 3051 3048 3047 3045 3044 3042 3041 3040 3039 3038 3036 3036 3037 3036 3035 3035 3036 3038 3039 3040 3042 3044 3047 3049 3052 3056 3058 3060 3060 3064 3072 3076 3077 3078 3081 3083 3086 3086 3087 3090 3089 3094 3097
3050 3047 3044 3043 3041 3039 3037 3035 3034 3033 3032 3032 3030 3029 3029 3029 3029 3027 3031 3032 3034 3035 3037 3040 3042 3046 3048 3050 3052 3054 3053 3063 3068 3071 3071 3073 3076 3079 3082 3083 3085 3087 3087 3092 3096
3046 3042 3039 3036 3033 3030 3029 3027 3026 3025 3023 3023 3023 3022 3022 3021 3024 3022 3024 3026 3027 3029 3031 3033 3038 3041 3043 3044 3048 3051 3053 3059 3063 3064 3067 3071 3073 3075 3077 3082 3083 3082 3086 3090 3093
3040 3036 3033 3029 3026 3023 3019 3018 3016 3014 3013 3013 3013 3014 3013 3011 3011 3019 3019 3021 3022 3024 3025 3028 3032 3036 3037 3042 3047 3045 3051 3056 3058 3059 3061 3066 3068 3072 3073 3077 3080 3078 3081 3086 3089
3033 3028 3025 3020 3017 3012 3009 3007 3005 3004 3002 3002 3003 3004 3002 2998 3008 3008 3012 3014 3018 3020 3022 3023 3026 3032 3036 3039 3042 3044 3047 3050 3053 3055 3056 3059 3062 3066 3069 3072 3076 3075 3078 3083 3086
3025 3021 3015 3010 3005 3001 2997 2995 2992 2991 2991 2990 2991 2992 2987 2986 2999 3000 3003 3006 3011 3014 3017 3020 3026 3029 3034 3037 3038 3040 3044 3045 3046 3050 3052 3054 3055 3056 3064 3068 3070 3070 3074 3078 3081
3016 3011 3005 3000 2995 2990 2986 2984 2982 2980 2978 2978 2979 2980 2965 2978 2991 2990 2996 3000 3004 3008 3012 3015 3019 3020 3024 3030 3031 3035 3039 3038 3041 3046 3048 3049 3044 3053 3059 3061 3063 3066 3070 3073 3076
3007 3002 2995 2990 2986 2981 2977 2974 2971 2970 2969 2969 2968 2970 2958 2963 2973 2982 2988 2993 2999 3003 3006 3009 3010 3014 3020 3024 3028 3029 3028 3032 3037 3040 3044 3043 3041 3049 3052 3055 3057 3061 3064 3067 3071
2999 2993 2987 2982 2977 2973 2970 2965 2963 2961 2960 2959 2959 2963 2954 2956 2961 2969 2978 2984 2990 2996 3000 3001 3003 3008 3012 3015 3014 3023 3026 3029 3031 3035 3036 3037 3036 3042 3047 3049 3051 3056 3058 3060 3064
2991 2985 2980 2975 2971 2967 2963 2958 2959 2957 2954 2953 2951 2947 2953 2956 2958 2960 2966 2973 2980 2987 2989 2993 2996 2994 3003 3010 3017 3022 3024 3024 3026 3028 3029 3030 3033 3036 3040 3043 3046 3048 3054 3055 3058
2984 2978 2973 2969 2966 2962 2959 2954 2953 2951 2944 2946 2943 2940 2943 2947 2948 2954 2961 2964 2970 2972 2983 2988 2984 2992 3001 3008 3013 3015 3019 3021 3024 3023 3026 3029 3028 3030 3032 3034 3039 3043 3047 3051 3053
2978 2973 2969 2964 2960 2958 2954 2952 2949 2947 2942 2933 2935 2932 2937 2942 2942 2943 2954 2957 2962 2969 2973 2975 2980 2990 2995 3002 3008 3010 3014 3018 3022 3020 3022 3025 3021 3021 3023 3026 3029 3035 3040 3045 3046
2974 2969 2965 2960 2958 2953 2951 2948 2945 2944 2939 2930 2925 2926 2925 2934 2934 2941 2942 2954 2958 2961 2969 2976 2983 2983 2990 2995 3003 3006 3012 3016 3018 3018 3021 3020 3015 3011 3013 3015 3019 3023 3029 3036 3041
2971 2967 2962 2955 2953 2950 2949 2946 2944 2943 2940 2930 2927 2925 2923 2926 2933 2933 2940 2942 2951 2955 2965 2965 2972 2980 2984 2987 2999 3002 3010 3012 3016 3018 3019 3018 3018 3003 3007 3006 3010 3016 3020 3028 3034
2968 2963 2958 2955 2951 2949 2946 2945 2944 2945 2937 2929 2927 2923 2924 2924 2928 2933 2932 2933 2947 2954 2958 2965 2970 2976 2978 2987 2993 3001 3002 3008 3012 3016 3013 3008 3013 3000 3001 3002 3006 3010 3013 3020 3026
2965 2960 2955 2951 2949 2946 2945 2944 2945 2940 2934 2932 2928 2925 2924 2925 2928 2931 2933 2931 2934 2947 2951 2960 2963 2969 2974 2982 2988 2994 2999 3002 3009 3010 3004 3000 3004 3000 2998 3000 3003 3005 3008 3013 3019
2961 2957 2953 2949 2947 2945 2944 2944 2942 2937 2935 2932 2929 2926 2924 2925 2926 2929 2932 2934 2939 2945 2950 2953 2962 2961 2965 2972 2976 2984 2991 2993 2997 3001 2996 3000 2992 2991 2997 2999 3001 3001 3004 3008 3013
2957 2954 2951 2948 2946 2944 2944 2943 2940 2938 2936 2932 2927 2924 2923 2924 2924 2927 2930 2931 2934 2941 2946 2951 2956 2959 2963 2970 2976 2980 2985 2990 2990 2989 2989 2988 2988 2989 2990 2993 2995 2998 3000 3003 3006
2956 2952 2950 2948 2946 2944 2944 2942 2940 2939 2936 2933 2931 2928 2925 2922 2922 2924 2928 2926 2929 2938 2945 2945 2955 2956 2962 2969 2974 2975 2982 2988 2990 2994 2988 2981 2981 2981 2982 2985 2988 2992 2996 3000 3002
2955 2951 2949 2947 2946 2945 2943 2941 2939 2938 2937 2934 2931 2929 2928 2925 2924 2924 2926 2930 2931 2935 2941 2945 2948 2953 2958 2960 2964 2973 2975 2981 2985 2986 2986 2981 2979 2977 2978 2980 2982 2986 2991 2996 2999
2954 2951 2948 2946 2947 2943 2942 2941 2939 2936 2935 2933 2931 2930 2929 2927 2923 2923 2925 2927 2927 2932 2936 2943 2947 2951 2954 2958 2964 2967 2970 2976 2979 2982 2984 2984 2980 2977 2978 2979 2979 2982 2986 2990 2994
2953 2950 2948 2946 2945 2944 2942 2939 2937 2934 2934 2933 2932 2931 2929 2927 2927 2925 2925 2926 2927 2929 2932 2938 2943 2950 2956 2960 2961 2963 2968 2973 2978 2980 2980 2984 2980 2977 2978 2978 2978 2979 2982 2986 2989
2953 2950 2948 2947 2945 2943 2939 2938 2935 2933 2932 2932 2931 2930 2928 2926 2926 2925 2923 2925 2925 2926 2928 2935 2939 2943 2949 2950 2955 2961 2964 2969 2974 2976 2978 2976 2977 2977 2977 2979 2980 2979 2980 2983 2987
2953 2951 2949 2947 2945 2943 2941 2938 2935 2933 2932 2931 2930 2930 2929 2927 2925 2923 2925 2925 2925 2925 2924 2928 2935 2941 2946 2950 2952 2956 2959 2964 2966 2969 2973 2975 2974 2979 2979 2980 2981 2980 2980 2983 2986
2954 2951 2948 2946 2945 2942 2941 2939 2936 2933 2931 2929 2930 2929 2928 2927 2927 2924 2925 2925 2927 2928 2926 2931 2936 2940 2944 2947 2949 2951 2955 2957 2960 2965 2968 2972 2971 2976 2978 2978 2982 2981 2982 2984 2986
2954 2951 2948 2947 2945 2943 2941 2938 2935 2932 2929 2928 2927 2927 2926 2926 2925 2924 2921 2925 2927 2928 2929 2932 2936 2940 2942 2943 2946 2947 2945 2949 2952 2955 2960 2961 2966 2971 2976 2975 2978 2980 2982 2983 2985